Location: Unspecified
(0.0000°N, 0.0000°E)
Time: 03:39:38
(UTC+01:00)

Ariane H10 - Pass Details

Date: 03 December 2017
Orbit: 390 x 35079 km, 4.3° (Epoch: 13 December)

Event Time Altitude Azimuth Distance (km) Brightness Sun altitude
Rises 14:17:03 0° 261° (W) 2,867 6.8 59.3°
Reaches altitude 10° 14:18:23 10° 258° (WSW) 2,285 6.5 59.1°
Maximum altitude 14:23:04 68° 174° (S) 1,597 6.7 58.3°
Drops below altitude 10° 15:00:20 10° 93° (E) 14,483 9.8 51.3°
Sets 23:56:31 0° 85° (E) 12,763 9.6 -64.2°
